Plymouth, NH

12:26 AM EST on February 14, 2016 (GMT -0500)
Plymouth

Weather History for K1P1 - July, 2012

Change the Weather History Date:

Friday, July 20, 2012

  Actual Average (KLCI) Record (KLCI)
Temperature  
Mean Temperature 62 °F -  
Max Temperature 77 °F 81 °F 95 °F (1991)
Min Temperature 47 °F 61 °F 44 °F (2000)
Degree Days  
Heating Degree Days 3    
Growing Degree Days 12 (Base 50)    
Moisture  
Dew Point 52 °F    
Average Humidity 68    
Maximum Humidity 99    
Minimum Humidity 38    
Precipitation  
Precipitation 0.00 in - - ()
Sea Level Pressure  
Sea Level Pressure 30.07 in    
Wind  
Wind Speed 0 mph (South)    
Max Wind Speed 5 mph    
Max Gust Speed -    
Visibility 9 miles    
Events      
Averages and records for this station are not official NWS values.
T = Trace of Precipitation, MM = Missing Value Source: NWS Daily Summary

Daily Weather History Graph

Daily Weather History Graph

Search for Another Location

Airport or City:

Trip Planner

Search our weather history database for the weather conditions in past years. The results will help you decide how hot, cold, wet, or windy it might be!

Date:

Astronomy

Jul. 20, 2012 Rise Set
Actual Time 5:23 AM EDT 8:22 PM EDT
Civil Twilight 4:49 AM EDT 8:56 PM EDT
Nautical Twilight 4:06 AM EDT 9:39 PM EDT
Astronomical Twilight 3:14 AM EDT 10:31 PM EDT
Moon 7:02 AM EDT (7/20) 8:54 PM EDT (7/20)
Length of Visible Light 16h 06m
Length of Day
14h 58m
New Moon, 2% of the Moon is Illuminated
Jul 20
New Moon
Jul 26
First Quarter
Aug 1
Full
Aug 9
Last Quarter
Aug 17
New

Hourly Weather History & Observations

Time (EDT) Temp. Dew Point Humidity Pressure Visibility Wind Dir Wind Speed Gust Speed Precip Events Conditions
12:35 AM 54.9 °F 51.8 °F 89% 30.07 in 10.0 mi Calm Calm - N/A   Clear
12:55 AM 53.6 °F 51.1 °F 91% 30.07 in 10.0 mi Calm Calm - N/A   Clear
1:35 AM 52.7 °F 51.3 °F 95% 30.08 in 10.0 mi Calm Calm - N/A   Clear
1:55 AM 51.8 °F 50.5 °F 95% 30.08 in 10.0 mi Calm Calm - N/A   Clear
2:15 AM 51.1 °F 50.0 °F 96% 30.08 in 5.0 mi Calm Calm - N/A   Clear
2:35 AM 50.2 °F 49.3 °F 97% 30.07 in 5.0 mi Calm Calm - N/A   Clear
2:55 AM 50.0 °F 48.9 °F 96% 30.07 in 5.0 mi Calm Calm - N/A   Clear
3:15 AM 49.1 °F 48.2 °F 97% 30.07 in 4.0 mi Calm Calm - N/A   Clear
3:55 AM 49.1 °F 48.2 °F 97% 30.07 in 4.0 mi Calm Calm - N/A   Clear
4:15 AM 48.9 °F 48.2 °F 97% 30.07 in 5.0 mi Calm Calm - N/A   Clear
4:35 AM 48.6 °F 48.0 °F 98% 30.08 in 7.0 mi Calm Calm - N/A   Clear
4:55 AM 48.6 °F 47.8 °F 97% 30.08 in 3.0 mi Calm Calm - N/A   Clear
5:15 AM 48.2 °F 47.7 °F 98% 30.08 in 5.0 mi Calm Calm - N/A   Clear
5:35 AM 48.0 °F 47.5 °F 98% 30.09 in 4.0 mi Calm Calm - N/A   Clear
5:55 AM 47.8 °F 47.3 °F 98% 30.09 in 1.8 mi Calm Calm - N/A   Mist
6:15 AM 48.2 °F 47.5 °F 97% 30.09 in 7.0 mi Calm Calm - N/A   Clear
6:35 AM 49.5 °F 49.1 °F 99% 30.09 in 7.0 mi Calm Calm - N/A   Clear
6:55 AM 50.7 °F 50.2 °F 98% 30.10 in 10.0 mi Calm Calm - N/A   Clear
7:15 AM 52.2 °F 51.6 °F 98% 30.10 in 10.0 mi Calm Calm - N/A   Clear
7:35 AM 53.1 °F 51.1 °F 93% 30.10 in 10.0 mi Calm Calm - N/A   Clear
7:55 AM 55.2 °F 51.3 °F 87% 30.11 in 10.0 mi Calm Calm - N/A   Clear
8:15 AM 56.8 °F 51.8 °F 83% 30.11 in 10.0 mi Calm Calm - N/A   Clear
8:55 AM 60.8 °F 51.3 °F 71% 30.11 in 10.0 mi Calm Calm - N/A   Clear
9:15 AM 62.8 °F 50.4 °F 64% 30.11 in 10.0 mi Calm Calm - N/A   Clear
9:35 AM 64.6 °F 49.6 °F 58% 30.11 in 10.0 mi Calm Calm - N/A   Clear
9:55 AM 66.6 °F 48.0 °F 51% 30.11 in 10.0 mi Calm Calm - N/A   Clear
10:15 AM 68.0 °F 49.6 °F 52% 30.10 in 10.0 mi East 3.5 mph - N/A   Clear
10:35 AM 68.2 °F 50.2 °F 53% 30.10 in 10.0 mi ESE 3.5 mph - N/A   Clear
10:55 AM 70.3 °F 50.9 °F 50% 30.09 in 10.0 mi Calm Calm - N/A   Clear
11:15 AM 70.2 °F 48.2 °F 46% 30.09 in 10.0 mi Calm Calm - N/A   Clear
11:35 AM 72.0 °F 51.8 °F 49% 30.08 in 10.0 mi Calm Calm - N/A   Clear
11:55 AM 72.0 °F 50.9 °F 47% 30.08 in 10.0 mi Calm Calm - N/A   Clear
12:15 PM 72.5 °F 50.4 °F 46% 30.08 in 10.0 mi Calm Calm - N/A   Clear
12:35 PM 72.9 °F 50.4 °F 45% 30.07 in 10.0 mi Calm Calm - N/A   Clear
12:55 PM 74.3 °F 52.9 °F 47% 30.07 in 10.0 mi SSW 3.5 mph - N/A   Clear
1:15 PM 74.7 °F 52.5 °F 46% 30.06 in 10.0 mi SSE 3.5 mph - N/A   Clear
1:35 PM 74.8 °F 52.5 °F 46% 30.05 in 10.0 mi SE 3.5 mph - N/A   Clear
1:55 PM 75.7 °F 51.6 °F 43% 30.05 in 10.0 mi Calm Calm - N/A   Clear
2:15 PM 76.1 °F 52.0 °F 43% 30.04 in 10.0 mi Calm Calm - N/A   Clear
2:35 PM 76.3 °F 52.2 °F 43% 30.04 in 10.0 mi SSW 3.5 mph - N/A   Clear
2:55 PM 76.5 °F 51.8 °F 42% 30.04 in 10.0 mi SW 3.5 mph - N/A   Clear
3:15 PM 76.6 °F 52.3 °F 43% 30.04 in 10.0 mi SSE 3.5 mph - N/A   Clear
3:35 PM 77.2 °F 52.2 °F 42% 30.03 in 10.0 mi SW 4.6 mph - N/A   Clear
3:55 PM 75.4 °F 53.1 °F 46% 30.02 in 10.0 mi Calm Calm - N/A   Clear
4:15 PM 76.5 °F 51.4 °F 42% 30.02 in 10.0 mi Calm Calm - N/A   Clear
4:35 PM 77.0 °F 50.7 °F 40% 30.02 in 10.0 mi Calm Calm - N/A   Clear
4:55 PM 76.3 °F 51.4 °F 42% 30.02 in 10.0 mi South 3.5 mph - N/A   Clear
5:15 PM 77.9 °F 51.4 °F 40% 30.01 in 10.0 mi Calm Calm - N/A   Clear
5:35 PM 76.8 °F 52.0 °F 42% 30.02 in 10.0 mi Calm Calm - N/A   Clear
5:55 PM 77.4 °F 50.0 °F 38% 30.02 in 10.0 mi Calm Calm - N/A   Clear
6:15 PM 77.0 °F 52.0 °F 42% 30.02 in 10.0 mi Calm Calm - N/A   Clear
6:35 PM 76.3 °F 50.5 °F 40% 30.02 in 10.0 mi Calm Calm - N/A   Scattered Clouds
6:55 PM 76.1 °F 51.3 °F 42% 30.02 in 10.0 mi Calm Calm - N/A   Scattered Clouds
7:15 PM 75.6 °F 52.9 °F 45% 30.02 in 10.0 mi Calm Calm - N/A   Clear
7:35 PM 73.8 °F 54.9 °F 52% 30.02 in 10.0 mi SSE 3.5 mph - N/A   Mostly Cloudy
7:55 PM 72.0 °F 54.1 °F 53% 30.03 in 10.0 mi South 3.5 mph - N/A   Scattered Clouds
8:15 PM 69.8 °F 54.9 °F 59% 30.03 in 10.0 mi South 3.5 mph - N/A   Clear
8:35 PM 68.4 °F 55.6 °F 64% 30.03 in 10.0 mi Calm Calm - N/A   Clear
8:55 PM 65.7 °F 57.0 °F 74% 30.04 in 10.0 mi Calm Calm - N/A   Clear
9:15 PM 62.6 °F 57.4 °F 83% 30.06 in 10.0 mi Calm Calm - N/A   Clear
9:35 PM 61.3 °F 57.2 °F 86% 30.07 in 10.0 mi Calm Calm - N/A   Mostly Cloudy
9:55 PM 60.6 °F 57.6 °F 90% 30.07 in 10.0 mi Calm Calm - N/A   Scattered Clouds
10:15 PM 59.7 °F 57.2 °F 91% 30.08 in 10.0 mi Calm Calm - N/A   Clear
10:35 PM 58.5 °F 55.8 °F 91% 30.09 in 10.0 mi Calm Calm - N/A   Clear
11:15 PM 59.0 °F 55.6 °F 88% 30.09 in 10.0 mi Calm Calm - N/A   Clear
11:35 PM 58.1 °F 55.6 °F 91% 30.09 in 10.0 mi Calm Calm - N/A   Clear